• Processing (Info)

  • MPEC 2016-L106: 2016 LU47

    The following Minor Planet Electronic Circular may be linked-to from your own Web pages, but must not otherwise be redistributed electronically.

    A form allowing access to any MPEC is at the bottom of this page.


    Read MPEC 2016-L105 Read MPEC 2016-L107


    M.P.E.C. 2016-L106                               Issued 2016 June 12, 15:16 UT
    
         The Minor Planet Electronic Circulars contain information on unusual
             minor planets and routine data on comets.  They are published
        on behalf of Division F of the International Astronomical Union by the
              Minor Planet Center, Smithsonian Astrophysical Observatory,
                              Cambridge, MA 02138, U.S.A.
    
                 Prepared using the Tamkin Foundation Computer Network
    
                                  MPC@CFA.HARVARD.EDU
                URL https://www.minorplanetcenter.net/    ISSN 1523-6714
    
                                       2016 LU47
    
    Observations:
         K16L47U* C2016 06 07.31897 14 26 03.138-38 06 00.74         20.8 wLEL106F51
         K16L47U  C2016 06 07.32890 14 26 00.916-38 06 35.34         20.7 wLEL106F51
         K16L47U  C2016 06 07.32955 14 26 00.748-38 06 37.57         20.8 wLEL106F51
         K16L47U  C2016 06 07.33950 14 25 58.521-38 07 12.34         21.2 wLEL106F51
         K16L47U  C2016 06 07.34879 14 25 56.384-38 07 45.22         20.8 wLEL106F51
         K16L47U  C2016 06 07.34943 14 25 56.284-38 07 47.04         21.0 wLEL106F51
         K16L47U KC2016 06 07.53243 14 25 18.65 -38 17 27.2          20.4 RtEL106474
         K16L47U KC2016 06 07.53594 14 25 17.95 -38 17 39.4          19.8 RtEL106474
         K16L47U KC2016 06 07.53946 14 25 17.25 -38 17 51.9          20.1 RtEL106474
         K16L47U _C2016 06 08.27555014 22 54.645-39 02 05.56         20.4 RtEL106568
         K16L47U _C2016 06 08.27658514 22 54.410-39 02 09.31         20.4 RtEL106568
         K16L47U _C2016 06 08.27762214 22 54.173-39 02 13.03         20.4 RtEL106568
         K16L47U KC2016 06 12.54370 14 07 59.34 -43 18 36.4          21.0 RtEL106474
         K16L47U KC2016 06 12.55777 14 07 56.11 -43 19 24.9          20.5 RtEL106474
         K16L47U KC2016 06 12.56228 14 07 55.00 -43 19 41.2                tEL106474
    
    Observer details:
    474 Mount John Observatory, Lake Tekapo.  Observers A. C. Gilmore,
        P. M. Kilmartin.  Measurer P. M. Kilmartin.  1.0-m f/7.7 reflector + CCD.
    568 Mauna Kea.  Observers R. J. Wainscoat, L. Wells.  Measurers M. Micheli,
        R. J. Wainscoat.  3.6-m Canada-France-Hawaii Telescope + CCD.
    F51 Pan-STARRS 1, Haleakala.  Observers B. Gibson, T. Goggia, N. Primak,
        A. Schultz, M. Willman.  Measurers K. Chambers, S. Chastel, L. Denneau,
        H. Flewelling, M. Huber, E. Lilly, E. Magnier, R. Wainscoat, C. Waters,
        R. Weryk.  1.8-m Ritchey-Chretien + CCD.
    
    Orbital elements:
    2016 LU47                                                Earth MOID = 0.1149 AU
    Epoch 2016 July 31.0 TT = JDT 2457600.5                 MPC
    M   1.77361              (2000.0)            P               Q
    n   0.51243068     Peri.  251.65102     +0.54770996     +0.82919305
    a   1.5466046      Node    52.07620     -0.70426793     +0.52892215
    e   0.3270151      Incl.    8.13262     -0.45168627     +0.18077676
    P   1.92           H   23.2           G   0.15           U   7
    Residuals in seconds of arc
    160607 F51  0.1+  0.0     160607 F51  0.0   0.1-    160608 568  0.1-  0.0
    160607 F51  0.2+  0.2+    160607 474  0.2-  0.5+    160608 568  0.1-  0.0
    160607 F51  0.0   0.2+    160607 474  0.4+  0.2+    160612 474  0.1+  0.7-
    160607 F51  0.1+  0.1+    160607 474  1.0+  0.4-    160612 474  0.3+  0.5+
    160607 F51  0.5-  0.5-    160608 568  0.1-  0.0     160612 474  0.4-  0.1+
    
    Ephemeris:
    2016 LU47                a,e,i = 1.55, 0.33, 8                   q = 1.0408
    Date    TT    R. A. (2000) Decl.     Delta      r     Elong.  Phase     V
    2016 05 13    15 26 04.0 -19 14 57   0.2377  1.2481   178.4     1.3    20.7
    ...
    2016 05 28    14 56 08.1 -28 53 26   0.1792  1.1830   159.6    17.4    20.7
    ...
    2016 06 05    14 33 27.4 -35 52 11   0.1591  1.1514   147.0    28.7    20.8
    ...
    2016 06 11    14 13 33.7 -41 44 24   0.1486  1.1295   137.5    37.4    20.8
    2016 06 12    14 10 00.5 -42 45 24   0.1472  1.1260   136.0    38.8    20.8
    2016 06 13    14 06 23.0 -43 46 53   0.1459  1.1226   134.4    40.2    20.9
    ...
    2016 06 19    13 42 56.4 -50 02 48   0.1398  1.1032   125.5    48.5    21.0
    ...
    2016 06 27    13 05 21.1 -58 24 15   0.1355  1.0809   115.0    58.4    21.1
    ...
    2016 07 12    11 09 02.2 -72 02 32   0.1357  1.0515   101.2    71.5    21.5
    
    A. U. Tomatic                (C) Copyright 2016 MPC           M.P.E.C. 2016-L106
    

    Read MPEC 2016-L105 Read MPEC 2016-L107


    MPEC number:

    Enter an MPEC number in one of the following forms:

    • 1997-B01 (the full form)
    • J97B01 (the packed version of the full form)
    • B01 (the abbreviated form)